Regional Weather Roundup
Issued by NWS

Home | Current Version | Previous Version | Graphics & Text | Print | Product List | Glossary On
Versions: 1 2 3 4 5 6 7 8 9 10 11 12 13 14 15 16 17 18 19 20 21 22 23 24 25 26 27 28 29 30 31 32 33 34 35 36 37 38 39 40 41 42 43 44 45 46 47 48 49 50
143
ASUS44 KJAN 232010
RWRMS

MISSISSIPPI HOURLY WEATHER ROUNDUP
NATIONAL WEATHER SERVICE JACKSON MS
300 PM CDT WED APR 23 2014

NOTE: "FAIR: INDICATES FEW OR NO CLOUDS BELOW 12,000 FEET WITH NO
SIGNIFICANT WEATHER AND/OR OBSTRUCTIONS TO VISIBILITY.

MSZ001>002-007>008-010>013-018>021-025>028-034>036-232100-
NORTHWEST MISSISSIPPI

CITY           SKY/WX    TMP DP  RH WIND       PRES   REMARKS
CLARKSDALE       N/A     75  43  31 NE6       29.98F
CLEVELAND      FAIR      76  46  33 N5        29.96F
GREENWOOD      SUNNY     79  42  26 N6        29.95F
GREENVILLE     SUNNY     79  44  28 VRB5      29.96F
GRENADA        FAIR      77  45  31 E6        29.97F
OLIVE BRANCH   SUNNY     73  37  27 E6        29.98F
OXFORD         LGT RAIN  75  32  20 CALM      29.99F
TUNICA         CLEAR     75  37  25 N5        29.99F
$$

MSZ003>006-009-014>017-022>024-029>033-037>039-232100-
NORTHEAST MISSISSIPPI

CITY           SKY/WX    TMP DP  RH WIND       PRES   REMARKS
BELMONT        FAIR      73  39  29 CALM      29.98F
COLUMBUS AFB   SUNNY     77  38  24 NW8       29.96F
CORINTH        FAIR      73  32  21 CALM      29.98F
GOLDN TRIANGLE SUNNY     75  43  31 NE7       29.99F
STARKVILLE     FAIR      73  41  31 NW3       29.96F
TUPELO         SUNNY     76  40  27 NE5       29.97F
$$

MSZ040-058-232100-
CENTRAL MISSISSIPPI

CITY           SKY/WX    TMP DP  RH WIND       PRES   REMARKS
JACKSON INTL   SUNNY     80  47  31 CALM      29.95F
JACKSON HAWKNS SUNNY     80  44  27 NE7       29.95F
MERIDIAN KEY   SUNNY     79  52  38 W10       29.94F
MERIDIAN NAS   SUNNY     78  48  34 W6        29.95F
RAYMOND        FAIR      79  73  83 SW6       29.95F
VICKSBURG      SUNNY     81  45  28 N6        29.95F
$$

MSZ059>079-232100-
SOUTH MISSISSIPPI

CITY           SKY/WX    TMP DP  RH WIND       PRES   REMARKS
BROOKHAVEN     FAIR      81  46  30 NW6       29.97F
HATTIESBURG    PTSUNNY   83  54  36 CALM      29.93F
MCCOMB         SUNNY     81  46  29 VRB5      29.94F
NATCHEZ        SUNNY     79  46  31 N7        29.95F
PINE BELT      MOSUNNY   81  54  39 CALM      29.95F
$$

MSZ080>082-232100-
COASTAL MISSISSIPPI

CITY           SKY/WX    TMP DP  RH WIND       PRES   REMARKS
BAY ST LOUIS   PTSUNNY   81  61  50 S7        29.93F
BILOXI         SUNNY     77  67  72 S12       29.93F
PASCAGOULA     SUNNY     79  65  62 S9        29.93F
GULFPORT       MOSUNNY   80  63  55 S9        29.93F
$$



USA.gov is the U.S. government's official web portal to all federal, state and local government web resources and services.